This is the latest recevied weather packets stored in our database for station/object S57PNX-8. If no packets are shown the sender has not sent any weather packets the latest 10 day(s).
| Time | Temp. | Humidity | Pressure | Rain* | Wind** | Luminosity | Snow |
|---|---|---|---|---|---|---|---|
| 1777865040 | 12.78° C | 41% | 1022.4 hPa | - | - | - | - |
| 1777864141 | 12.78° C | 41% | 1022.5 hPa | - | - | - | - |
| 1777846753 | 13.33° C | 33% | 1023.1 hPa | - | - | - | - |
| 1777838653 | 14.44° C | 38% | 1023 hPa | - | - | - | - |
| 1777833256 | 15° C | 35% | 1023 hPa | - | - | - | - |
| 1777825412 | 19.44° C | 32% | 1023.3 hPa | - | - | - | - |
| 1777824263 | 21.11° C | 31% | 1023.2 hPa | - | - | - | - |
| 1777817405 | 17.78° C | 35% | 1023.8 hPa | - | - | - | - |
| 1777808413 | 16.67° C | 37% | 1024.4 hPa | - | - | - | - |
| 1777803015 | 16.11° C | 39% | 1024.8 hPa | - | - | - | - |
| 1777801215 | 15.56° C | 40% | 1025 hPa | - | - | - | - |
| 1777800317 | 15.56° C | 41% | 1025 hPa | - | - | - | - |
| 1777799418 | 15° C | 41% | 1025.2 hPa | - | - | - | - |
| 1777798519 | 14.44° C | 42% | 1025.1 hPa | - | - | - | - |
| 1777797620 | 13.89° C | 43% | 1025.1 hPa | - | - | - | - |
| 1777796721 | 13.89° C | 45% | 1025.2 hPa | - | - | - | - |
| 1777795822 | 13.33° C | 46% | 1025.1 hPa | - | - | - | - |
| 1777794958 | 12.78° C | 48% | 1025 hPa | - | - | - | - |
| 1777794921 | 12.78° C | 48% | 1025 hPa | - | - | - | - |
| 1777794023 | 12.78° C | 51% | 1024.9 hPa | - | - | - | - |
| 1777793128 | 12.78° C | 51% | 1024.9 hPa | - | - | - | - |
| 1777792221 | 12.22° C | 51% | 1024.8 hPa | - | - | - | - |
| 1777791318 | 12.22° C | 51% | 1024.8 hPa | - | - | - | - |
| 1777790418 | 12.22° C | 51% | 1024.7 hPa | - | - | - | - |
| 1777789520 | 11.67° C | 52% | 1024.6 hPa | - | - | - | - |
* Rain since midnight (hover to see other rain measurements)
** Current wind speed in m/s (hover to see current wind gust speed)